Time,TemperatureF,DewpointF,PressureIn,WindDirection,WindDirectionDegrees,WindSpeedMPH,WindSpeedGustMPH,Humidity,HourlyPrecipIn,Conditions,Clouds,dailyrainin,SoftwareType,DateUTC
2013-07-01 00:01:00,74.0,71.0,29.90,East,101,2.0,3.0,89,0.00,,,0.01,,2013-07-01 04:01:00,
2013-07-01 00:11:00,74.0,71.0,29.90,ESE,121,1.0,5.0,89,0.00,,,0.01,,2013-07-01 04:11:00,
2013-07-01 00:22:00,74.0,71.0,29.90,ESE,121,1.0,5.0,89,0.00,,,0.01,,2013-07-01 04:22:00,
2013-07-01 00:32:00,74.0,71.0,29.90,ESE,121,1.0,5.0,89,0.00,,,0.01,,2013-07-01 04:32:00,
2013-07-01 00:43:00,74.0,71.0,29.90,ESE,121,1.0,5.0,89,0.00,,,0.01,,2013-07-01 04:43:00,
2013-07-01 00:53:00,75.0,72.0,29.90,ESE,117,1.0,5.0,89,0.00,,,0.01,,2013-07-01 04:53:00,
2013-07-01 01:02:00,74.0,71.0,29.91,East,89,0.0,3.0,90,0.00,,,0.01,,2013-07-01 05:02:00,
2013-07-01 01:11:00,74.0,71.0,29.91,East,96,1.0,2.0,90,0.00,,,0.01,,2013-07-01 05:11:00,
2013-07-01 01:22:00,74.0,71.0,29.91,ESE,114,1.0,3.0,90,0.00,,,0.01,,2013-07-01 05:22:00,
2013-07-01 01:33:00,74.0,71.0,29.91,ESE,114,0.0,1.0,90,0.00,,,0.01,,2013-07-01 05:33:00,
2013-07-01 01:42:00,74.0,71.0,29.91,ESE,116,1.0,3.0,90,0.00,,,0.01,,2013-07-01 05:42:00,
2013-07-01 01:52:00,74.0,71.0,29.91,ESE,117,0.0,2.0,90,0.00,,,0.01,,2013-07-01 05:52:00,
2013-07-01 02:02:00,74.0,71.0,29.91,ESE,117,0.0,2.0,90,0.00,,,0.01,,2013-07-01 06:02:00,
2013-07-01 02:12:00,74.0,71.0,29.91,SE,129,0.0,2.0,90,0.00,,,0.01,,2013-07-01 06:12:00,
2013-07-01 02:24:00,74.0,71.0,29.91,East,101,2.0,3.0,90,0.00,,,0.01,,2013-07-01 06:24:00,
2013-07-01 02:33:00,74.0,71.0,29.90,ESE,106,1.0,2.0,90,0.00,,,0.01,,2013-07-01 06:33:00,
2013-07-01 02:43:00,74.0,71.0,29.90,ESE,120,0.0,3.0,90,0.00,,,0.01,,2013-07-01 06:43:00,
2013-07-01 02:53:00,74.0,71.0,29.90,ESE,120,1.0,3.0,90,0.00,,,0.01,,2013-07-01 06:53:00,
2013-07-01 03:02:00,74.0,71.0,29.90,ESE,106,0.0,3.0,90,0.00,,,0.01,,2013-07-01 07:02:00,
2013-07-01 03:12:00,74.0,71.0,29.90,ESE,115,1.0,3.0,90,0.00,,,0.01,,2013-07-01 07:12:00,
2013-07-01 03:22:00,74.0,71.0,29.89,ESE,106,1.0,5.0,90,0.00,,,0.01,,2013-07-01 07:22:00,
2013-07-01 03:33:00,74.0,71.0,29.90,ESE,104,2.0,3.0,90,0.00,,,0.01,,2013-07-01 07:33:00,
2013-07-01 03:43:00,74.0,71.0,29.90,SE,133,2.0,3.0,90,0.00,,,0.01,,2013-07-01 07:43:00,
2013-07-01 03:53:00,74.0,71.0,29.89,ESE,113,1.0,3.0,90,0.00,,,0.01,,2013-07-01 07:53:00,
2013-07-01 04:01:00,74.0,71.0,29.89,ESE,111,0.0,3.0,90,0.00,,,0.01,,2013-07-01 08:01:00,
2013-07-01 04:12:00,74.0,71.0,29.89,SE,135,1.0,3.0,90,0.00,,,0.01,,2013-07-01 08:12:00,
2013-07-01 04:22:00,74.0,71.0,29.89,ESE,111,2.0,3.0,90,0.00,,,0.01,,2013-07-01 08:22:00,
2013-07-01 04:33:00,74.0,71.0,29.89,ESE,114,0.0,2.0,90,0.00,,,0.01,,2013-07-01 08:33:00,
2013-07-01 04:43:00,74.0,71.0,29.89,ESE,114,0.0,2.0,90,0.00,,,0.01,,2013-07-01 08:43:00,
2013-07-01 04:52:00,74.0,71.0,29.90,SSW,203,0.0,2.0,90,0.00,,,0.01,,2013-07-01 08:52:00,
2013-07-01 05:02:00,74.0,71.0,29.90,ESE,111,0.0,2.0,90,0.00,,,0.01,,2013-07-01 09:02:00,
2013-07-01 05:12:00,74.0,71.0,29.90,ESE,112,2.0,3.0,90,0.00,,,0.01,,2013-07-01 09:12:00,
2013-07-01 05:22:00,74.0,71.0,29.90,ESE,106,0.0,3.0,90,0.00,,,0.01,,2013-07-01 09:22:00,
2013-07-01 05:34:00,74.0,71.0,29.91,ESE,111,1.0,2.0,90,0.00,,,0.01,,2013-07-01 09:34:00,
2013-07-01 05:43:00,74.0,71.0,29.91,ESE,118,1.0,3.0,90,0.00,,,0.01,,2013-07-01 09:43:00,
2013-07-01 05:53:00,74.0,71.0,29.91,SE,124,1.0,3.0,90,0.00,,,0.01,,2013-07-01 09:53:00,
2013-07-01 06:03:00,74.0,71.0,29.91,East,88,1.0,3.0,90,0.00,,,0.01,,2013-07-01 10:03:00,
2013-07-01 06:22:00,74.0,71.0,29.92,East,91,0.0,1.0,90,0.00,,,0.01,,2013-07-01 10:22:00,
2013-07-01 06:33:00,74.0,71.0,29.93,East,92,1.0,3.0,91,0.00,,,0.01,,2013-07-01 10:33:00,
2013-07-01 06:43:00,74.0,71.0,29.93,ESE,106,0.0,3.0,91,0.00,,,0.01,,2013-07-01 10:43:00,
2013-07-01 06:52:00,74.0,71.0,29.92,ESE,106,1.0,2.0,91,0.00,,,0.01,,2013-07-01 10:52:00,
2013-07-01 07:02:00,74.0,71.0,29.92,ESE,103,0.0,3.0,91,0.00,,,0.01,,2013-07-01 11:02:00,
2013-07-01 07:12:00,75.0,72.0,29.92,ESE,119,1.0,3.0,90,0.00,,,0.01,,2013-07-01 11:12:00,
2013-07-01 07:22:00,75.0,72.0,29.93,ESE,108,1.0,3.0,90,0.00,,,0.01,,2013-07-01 11:22:00,
2013-07-01 07:33:00,75.0,72.0,29.92,SE,126,0.0,3.0,90,0.00,,,0.01,,2013-07-01 11:33:00,
2013-07-01 07:43:00,75.0,72.0,29.93,SE,124,0.0,2.0,90,0.00,,,0.01,,2013-07-01 11:43:00,
2013-07-01 07:52:00,75.0,72.0,29.93,SE,126,2.0,3.0,90,0.00,,,0.01,,2013-07-01 11:52:00,
2013-07-01 08:01:00,75.0,72.0,29.93,ESE,116,0.0,3.0,90,0.00,,,0.01,,2013-07-01 12:01:00,
2013-07-01 08:11:00,75.0,72.0,29.93,ESE,116,0.0,3.0,90,0.00,,,0.01,,2013-07-01 12:11:00,
2013-07-01 08:22:00,75.0,72.0,29.94,SSE,156,1.0,3.0,90,0.00,,,0.01,,2013-07-01 12:22:00,
2013-07-01 08:33:00,75.0,72.0,29.94,SSW,193,0.0,2.0,90,0.00,,,0.01,,2013-07-01 12:33:00,
2013-07-01 08:43:00,75.0,72.0,29.94,ESE,111,2.0,6.0,89,0.00,,,0.01,,2013-07-01 12:43:00,
2013-07-01 08:53:00,76.0,73.0,29.94,ESE,116,1.0,3.0,89,0.00,,,0.01,,2013-07-01 12:53:00,
2013-07-01 09:02:00,77.0,73.0,29.94,ESE,114,2.0,5.0,88,0.00,,,0.01,,2013-07-01 13:02:00,
2013-07-01 09:23:00,77.0,73.0,29.93,ESE,112,2.0,6.0,87,0.00,,,0.01,,2013-07-01 13:23:00,
2013-07-01 09:33:00,77.0,72.0,29.94,East,97,3.0,6.0,86,0.00,,,0.01,,2013-07-01 13:33:00,
2013-07-01 09:53:00,77.0,72.0,29.93,ESE,114,2.0,6.0,86,0.00,,,0.01,,2013-07-01 13:53:00,
2013-07-01 10:01:00,76.0,72.0,29.93,ESE,108,3.0,7.0,87,0.00,,,0.01,,2013-07-01 14:01:00,
2013-07-01 10:34:00,76.0,73.0,29.93,SSW,202,1.0,8.0,91,0.19,,,0.20,,2013-07-01 14:34:00,
2013-07-01 10:53:00,74.0,72.0,29.95,SSW,204,3.0,7.0,92,0.50,,,0.51,,2013-07-01 14:53:00,
2013-07-01 11:02:00,74.0,72.0,29.96,SSW,210,1.0,5.0,93,0.50,,,0.51,,2013-07-01 15:02:00,
2013-07-01 11:34:00,75.0,73.0,29.97,SW,231,1.0,3.0,92,0.31,,,0.51,,2013-07-01 15:34:00,
2013-07-01 11:52:00,74.0,72.0,29.96,SSW,211,0.0,2.0,93,0.21,,,0.72,,2013-07-01 15:52:00,
2013-07-01 12:11:00,74.0,72.0,29.97,ESE,118,0.0,3.0,94,0.22,,,0.73,,2013-07-01 16:11:00,
2013-07-01 12:22:00,74.0,72.0,29.96,SE,130,2.0,3.0,94,0.22,,,0.73,,2013-07-01 16:22:00,
2013-07-01 12:33:00,74.0,72.0,29.97,ESE,120,1.0,3.0,94,0.09,,,0.74,,2013-07-01 16:33:00,
2013-07-01 12:44:00,74.0,72.0,29.97,ESE,112,1.0,3.0,94,0.03,,,0.75,,2013-07-01 16:44:00,
2013-07-01 12:53:00,74.0,72.0,29.97,ESE,121,0.0,3.0,94,0.02,,,0.75,,2013-07-01 16:53:00,
2013-07-01 13:02:00,75.0,73.0,29.97,East,99,2.0,5.0,94,0.02,,,0.75,,2013-07-01 17:02:00,
2013-07-01 13:23:00,75.0,73.0,29.97,ESE,109,0.0,5.0,92,0.02,,,0.75,,2013-07-01 17:23:00,
2013-07-01 13:34:00,75.0,73.0,29.97,ESE,112,1.0,5.0,92,0.02,,,0.75,,2013-07-01 17:34:00,
2013-07-01 13:43:00,75.0,73.0,29.98,ESE,118,2.0,5.0,94,0.01,,,0.76,,2013-07-01 17:43:00,
2013-07-01 13:53:00,76.0,74.0,29.98,ESE,121,1.0,6.0,93,0.01,,,0.76,,2013-07-01 17:53:00,
2013-07-01 14:02:00,76.0,74.0,29.98,ESE,121,1.0,6.0,93,0.01,,,0.76,,2013-07-01 18:02:00,
2013-07-01 14:11:00,76.0,74.0,29.97,ESE,120,1.0,3.0,93,0.01,,,0.76,,2013-07-01 18:11:00,
2013-07-01 14:33:00,76.0,74.0,29.97,SE,130,0.0,8.0,92,0.06,,,0.81,,2013-07-01 18:33:00,
2013-07-01 14:44:00,76.0,74.0,29.97,ESE,112,2.0,3.0,93,0.05,,,0.81,,2013-07-01 18:44:00,
2013-07-01 14:53:00,76.0,74.0,29.97,ESE,113,2.0,5.0,92,0.05,,,0.81,,2013-07-01 18:53:00,
2013-07-01 15:02:00,76.0,74.0,29.97,ENE,77,0.0,6.0,92,0.05,,,0.81,,2013-07-01 19:02:00,
2013-07-01 15:33:00,75.0,73.0,29.98,ESE,117,1.0,3.0,92,0.02,,,0.83,,2013-07-01 19:33:00,
2013-07-01 15:44:00,75.0,73.0,29.97,ESE,116,2.0,3.0,94,0.03,,,0.84,,2013-07-01 19:44:00,
2013-07-01 15:52:00,75.0,73.0,29.97,ESE,116,2.0,3.0,94,0.03,,,0.84,,2013-07-01 19:52:00,
2013-07-01 16:02:00,75.0,73.0,29.96,ESE,108,3.0,9.0,94,0.03,,,0.84,,2013-07-01 20:02:00,
2013-07-01 16:11:00,75.0,73.0,29.96,ESE,108,3.0,9.0,94,0.03,,,0.84,,2013-07-01 20:11:00,
2013-07-01 16:34:00,75.0,73.0,29.96,ESE,103,1.0,6.0,94,0.01,,,0.83,,2013-07-01 20:34:00,
2013-07-01 16:43:00,75.0,73.0,29.96,ESE,110,0.0,3.0,93,0.00,,,0.83,,2013-07-01 20:43:00,
2013-07-01 16:52:00,75.0,73.0,29.96,ESE,110,0.0,3.0,93,0.00,,,0.83,,2013-07-01 20:52:00,
2013-07-01 17:02:00,76.0,73.0,29.97,WNW,303,1.0,6.0,91,0.00,,,0.83,,2013-07-01 21:02:00,
2013-07-01 17:11:00,76.0,73.0,29.97,WNW,303,1.0,6.0,91,0.00,,,0.83,,2013-07-01 21:11:00,
2013-07-01 17:24:00,76.0,73.0,29.96,ESE,102,2.0,8.0,91,0.00,,,0.83,,2013-07-01 21:24:00,
2013-07-01 17:34:00,75.0,72.0,29.96,East,87,3.0,8.0,91,0.00,,,0.83,,2013-07-01 21:34:00,
2013-07-01 17:43:00,75.0,72.0,29.97,ESE,108,2.0,7.0,91,0.00,,,0.83,,2013-07-01 21:43:00,
2013-07-01 17:53:00,75.0,72.0,29.97,ESE,108,2.0,7.0,91,0.00,,,0.83,,2013-07-01 21:53:00,
2013-07-01 18:01:00,75.0,73.0,29.97,ESE,123,3.0,10.0,92,0.00,,,0.83,,2013-07-01 22:01:00,
2013-07-01 18:24:00,74.0,72.0,29.97,SSE,163,3.0,9.0,92,0.00,,,0.83,,2013-07-01 22:24:00,
2013-07-01 18:43:00,74.0,72.0,29.98,ESE,121,3.0,6.0,92,0.00,,,0.83,,2013-07-01 22:43:00,
2013-07-01 19:33:00,75.0,72.0,29.99,East,97,1.0,6.0,90,0.00,,,0.83,,2013-07-01 23:33:00,
2013-07-01 19:44:00,75.0,72.0,30.00,SE,139,2.0,5.0,90,0.00,,,0.83,,2013-07-01 23:44:00,
2013-07-01 19:53:00,75.0,72.0,30.00,SE,126,1.0,3.0,90,0.00,,,0.83,,2013-07-01 23:53:00,
2013-07-01 20:01:00,75.0,72.0,30.01,ESE,108,2.0,5.0,90,0.00,,,0.83,,2013-07-02 00:01:00,
2013-07-01 20:12:00,75.0,72.0,30.01,ESE,121,2.0,3.0,90,0.00,,,0.83,,2013-07-02 00:12:00,
2013-07-01 20:22:00,75.0,72.0,30.01,SSE,168,1.0,3.0,90,0.00,,,0.83,,2013-07-02 00:22:00,
2013-07-01 20:34:00,75.0,72.0,30.01,East,100,2.0,5.0,90,0.00,,,0.83,,2013-07-02 00:34:00,
2013-07-01 20:43:00,75.0,72.0,30.01,SSE,148,1.0,5.0,91,0.00,,,0.83,,2013-07-02 00:43:00,
2013-07-01 20:53:00,74.0,71.0,30.01,ESE,111,2.0,5.0,91,0.00,,,0.83,,2013-07-02 00:53:00,
2013-07-01 21:01:00,74.0,71.0,30.01,ESE,111,2.0,5.0,91,0.00,,,0.83,,2013-07-02 01:01:00,
2013-07-01 21:33:00,74.0,71.0,30.02,ESE,118,1.0,3.0,91,0.00,,,0.83,,2013-07-02 01:33:00,
2013-07-01 21:43:00,74.0,71.0,30.02,SE,141,2.0,5.0,91,0.00,,,0.83,,2013-07-02 01:43:00,
2013-07-01 21:53:00,74.0,71.0,30.02,SE,141,2.0,5.0,91,0.00,,,0.83,,2013-07-02 01:53:00,
2013-07-01 22:02:00,74.0,71.0,30.02,ESE,113,2.0,6.0,91,0.00,,,0.83,,2013-07-02 02:02:00,
2013-07-01 22:12:00,74.0,72.0,30.03,ESE,114,1.0,3.0,92,0.00,,,0.83,,2013-07-02 02:12:00,
2013-07-01 22:43:00,74.0,71.0,30.03,ESE,114,0.0,3.0,91,0.00,,,0.83,,2013-07-02 02:43:00,
2013-07-01 22:53:00,74.0,71.0,30.03,ESE,114,0.0,3.0,91,0.00,,,0.83,,2013-07-02 02:53:00,
2013-07-01 23:02:00,74.0,71.0,30.03,ESE,108,1.0,5.0,91,0.00,,,0.83,,2013-07-02 03:02:00,
2013-07-01 23:12:00,74.0,72.0,30.03,SE,125,1.0,3.0,92,0.00,,,0.83,,2013-07-02 03:12:00,
2013-07-01 23:32:00,74.0,72.0,30.04,ESE,105,4.0,6.0,92,0.00,,,0.83,,2013-07-02 03:32:00,
2013-07-01 23:53:00,74.0,72.0,30.04,East,95,0.0,3.0,92,0.00,,,0.83,,2013-07-02 03:53:00,